Find Kuiper-00137

NORAD ID: 65963 Int'l Des: 2025-228 Owner: KUIP Country: US Constellation: amazon-leo operational
LEOCIRCULAR

当前视图

正在加载3D地球...

About Kuiper-00137

Kuiper-00137 (NORAD 65963) is a amazon-leo constellation satellite launched Oct 14, 2025 by KUIP of US. It operates in LEO, CIRCULAR orbit with a mass of 490.00 kg.

即将过境

Passes for default location (London). Set your location on the main map for personalized predictions.

高度历史

Loading altitude history...

两行轨道根数

1 65963U 25228S 26264.21042569 .00002096 00000-0 30384-3 0 9995
2 65963 51.9031 201.0734 0001037 61.2358 298.8709 14.79931206 52397
Epoch: Sep 21, 2026 • Age: 7 hours

当前状态

高度 629.6 km
远地点 / 近地点 N/A
速度 7.55 km/s
星下点 23.35°N, 44.14°E
发射日期 Oct 14, 2025
运行时间 0.9 years
类型 internet

技术详情

分类 Payload
质量 490.00 kg
形状 ? Box + 2 pan
制造商 KUIP
平台类型 Kuiper
阶段状态 In Orbit
所有者/国家 KUIP/US

Most Searched